アラン-リゴー彗星

49P/Arend-Rigaux (2011)

English version
Home page
Updated on May 15, 2012

---------------------------------------------------------------------

・ プロフィール

・ 写真集

・ 軌道要素

Epoch 2011 Oct. 6.0 TT = JDT 2455840.5
T 2011 Oct. 19.07828 TT                                 MPC
q   1.4238285            (2000.0)            P               Q
n   0.14656285     Peri.  332.78990     -0.05100945     -0.95692682
a   3.5627618      Node   118.87653     +0.96536512     -0.12056570
e   0.6003582      Incl.   19.05020     +0.25586758     +0.26411167
P   6.72
From 2684 observations 1963 Sept. 12-2012 May 2, mean residual 0".6.
     Nongravitational parameters A1 = +0.02, A2 = -0.0001.

・ 星図

・ 光度変化

        H = 13.5  G = 0.15                       [    ,-100]  (              〜2011年 7月11日)
        m1 = 8.0 + 5 logΔ + 30.0 log r(t - 10)  [-100, 117]  (2011年 7月11日〜2012年 2月13日)
        H = 13.5  G = 0.15                       [ 117,    ]  (2012年 2月13日〜              )

---------------------------------------------------------------------

軌道要素はM.P.E.C. 2012-J16に掲載されたものです。
星図はステラナビゲータ Ver.8 (アストロアーツ) で作成したものです。
光度グラフはComet for Windowsで作成したものです。

---------------------------------------------------------------------

Copyright(C) Seiichi Yoshida (comet@aerith.net). All rights reserved.